This demonstration page uses our WeatherBlox Daily Observations layout. Learn more.

41.55636, -103.73856

Hourly Observations for July 9, 2019

Temp ( °F °C ) Dew Point ( °F °C ) Humidity (%) Winds ( mph kmh ) Pressure ( in mb ) Visibility ( mi km ) Precip ( " mm )
12:53 am 00:53 Clear 61 16 N/A N/A ESE 3 6 29.77 1008 10 16.09344 0 0
1:53 am 01:53 Clear 61 16 N/A N/A WNW 8 13 29.8 1009 10 16.09344 0.001 0.001
2:53 am 02:53 Clear 59 15 N/A N/A WSW 8 13 29.8 1009 10 16.09344 0 0
3:53 am 03:53 Clear 57 14 N/A N/A NNW 5 7 29.85 1011 10 16.09344 0 0
4:53 am 04:53 Clear 57 14 N/A N/A undefined N/A 29.88 1012 10 16.09344 0 0
5:53 am 05:53 Sunny 54 12 N/A N/A W 6 9 29.88 1012 10 16.09344 0 0
6:53 am 06:53 Sunny 59 15 N/A N/A NW 5 7 29.88 1012 10 16.09344 0 0
7:53 am 07:53 Sunny 63 17 N/A N/A NW 7 11 29.91 1013 10 16.09344 0 0
8:53 am 08:53 Sunny 68 20 N/A N/A W 8 13 29.88 1012 10 16.09344 0 0
9:53 am 09:53 Sunny 72 22 N/A N/A WNW 14 22 29.88 1012 10 16.09344 0 0
10:53 am 10:53 Sunny 77 25 N/A N/A NW 13 20 29.88 1012 10 16.09344 0 0
11:53 am 11:53 Sunny 79 26 N/A N/A W 7 11 29.88 1012 10 16.09344 0 0
12:53 pm 12:53 Sunny 81 27 N/A N/A WNW 8 13 29.88 1012 10 16.09344 0 0
1:53 pm 13:53 Sunny 84 29 N/A N/A NNW 12 19 29.85 1011 10 16.09344 0 0
2:53 pm 14:53 Sunny 86 30 N/A N/A VRB 3 6 29.85 1011 10 16.09344 0 0
3:53 pm 15:53 Mostly Sunny 88 31 N/A N/A WSW 8 13 29.85 1011 10 16.09344 0 0
4:53 pm 16:53 Mostly Cloudy 82 28 N/A N/A E 9 15 29.88 1012 10 16.09344 0 0
5:53 pm 17:53 Sunny 77 25 N/A N/A NNE 22 35 29.94 1014 10 16.09344 0 0
6:53 pm 18:53 Sunny 73 23 N/A N/A NE 10 17 29.94 1014 10 16.09344 0.001 0.001
7:53 pm 19:53 Sunny 73 23 N/A N/A NNE 7 11 29.97 1015 10 16.09344 0 0
8:53 pm 20:53 Clear 70 21 N/A N/A N 9 15 30.03 1017 10 16.09344 0 0
9:53 pm 21:53 Clear 63 17 N/A N/A W 3 6 30.09 1019 10 16.09344 0 0
10:53 pm 22:53 Clear 61 16 N/A N/A W 6 9 30.09 1019 10 16.09344 0 0
11:53 pm 23:53 Clear 57 14 N/A N/A Calm 30.12 1020 10 16.09344 0 0

Powered by AerisWeather